Year,Month,Day,Hour,Minute,Value (Times are PST for temperature in C)
2015,01,29,13,21,8.60
2015,01,29,13,22,8.60
2015,01,29,13,23,8.60
2015,01,29,13,24,8.60
2015,01,29,13,25,8.60
2015,01,29,13,26,8.50
2015,01,29,13,27,8.50
2015,01,29,13,28,8.50
2015,01,29,13,29,8.50
2015,01,29,13,36,8.40
2015,01,29,13,37,8.40
2015,01,29,13,38,8.50
2015,01,29,13,39,8.50
2015,01,29,13,40,8.50
2015,01,29,13,41,8.50
2015,01,29,13,42,8.50
2015,01,29,13,43,8.50
2015,01,29,13,44,8.50
2015,01,29,13,45,8.50
2015,01,29,13,46,8.60
2015,01,29,13,47,8.60
2015,01,29,13,48,8.70
2015,01,29,13,49,8.70
2015,01,29,13,50,8.70
2015,01,29,13,51,8.70
2015,01,29,13,52,8.70
2015,01,29,13,53,8.70
2015,01,29,13,54,8.70
2015,01,29,13,55,8.60
2015,01,29,13,56,8.60
2015,01,29,13,57,8.60
2015,01,29,13,58,8.60
2015,01,29,13,59,8.60
2015,01,29,14,00,8.60
2015,01,29,14,01,8.60
2015,01,29,14,02,8.70
2015,01,29,14,03,8.70
2015,01,29,14,04,8.70
2015,01,29,14,05,8.70
2015,01,29,14,06,8.80
2015,01,29,14,07,8.80
2015,01,29,14,08,8.70
2015,01,29,14,09,8.70
2015,01,29,14,10,8.70
2015,01,29,14,11,8.80
2015,01,29,14,12,8.80
2015,01,29,14,13,8.80
2015,01,29,14,14,8.80
2015,01,29,14,15,8.80
2015,01,29,14,16,8.80
2015,01,29,14,17,8.90
2015,01,29,14,18,8.80
2015,01,29,14,19,8.90
2015,01,29,14,20,8.90
2015,01,29,14,21,8.90
2015,01,29,14,22,8.90
2015,01,29,14,23,8.90
2015,01,29,14,24,8.90
2015,01,29,14,25,8.80
2015,01,29,14,26,8.80
2015,01,29,14,27,8.80
2015,01,29,14,28,8.80
2015,01,29,14,29,8.80
2015,01,29,14,30,8.80
2015,01,29,14,31,8.70
2015,01,29,14,32,8.70
2015,01,29,14,33,8.70
2015,01,29,14,34,8.70
2015,01,29,14,35,8.70
2015,01,29,14,36,8.70
2015,01,29,14,37,8.70
2015,01,29,14,38,8.80
2015,01,29,14,39,8.80
2015,01,29,14,40,8.80
2015,01,29,14,41,8.80
2015,01,29,14,42,8.90
2015,01,29,14,43,8.90
2015,01,29,14,44,8.90
2015,01,29,14,45,8.90
2015,01,29,14,46,8.90
2015,01,29,14,47,9.00
2015,01,29,14,48,9.00
2015,01,29,14,49,9.00
2015,01,29,14,50,9.10
2015,01,29,14,51,9.10
2015,01,29,14,52,9.20
2015,01,29,14,53,9.20
2015,01,29,14,54,9.10
2015,01,29,14,55,9.10
2015,01,29,14,56,9.10
2015,01,29,14,57,9.10
2015,01,29,14,58,9.10
2015,01,29,14,59,9.10
2015,01,29,15,00,9.00
2015,01,29,15,01,9.00
2015,01,29,15,02,9.00
2015,01,29,15,03,9.10
2015,01,29,15,04,9.10
2015,01,29,15,05,9.10
2015,01,29,15,06,9.10
2015,01,29,15,07,9.10
2015,01,29,15,08,9.10
2015,01,29,15,09,9.10
2015,01,29,15,10,9.10
2015,01,29,15,11,9.10
2015,01,29,15,12,9.20
2015,01,29,15,13,9.20
2015,01,29,15,14,9.20
2015,01,29,15,15,9.30
2015,01,29,15,16,9.30
2015,01,29,15,17,9.30
2015,01,29,15,18,9.20
2015,01,29,15,19,9.20
2015,01,29,15,20,9.20
2015,01,29,15,21,9.10
2015,01,29,15,22,9.10
2015,01,29,15,23,9.10
2015,01,29,15,24,9.20
2015,01,29,15,25,9.20
2015,01,29,15,26,9.20
2015,01,29,15,27,9.20
2015,01,29,15,28,9.20
2015,01,29,15,29,9.20
2015,01,29,15,30,9.20
2015,01,29,15,31,9.20
2015,01,29,15,32,9.20
2015,01,29,15,33,9.20
2015,01,29,15,34,9.20
2015,01,29,15,35,9.20
2015,01,29,15,36,9.20
2015,01,29,15,37,9.10
2015,01,29,15,38,9.10
2015,01,29,15,39,9.10
2015,01,29,15,40,9.10
2015,01,29,15,41,9.10
2015,01,29,15,42,9.10
2015,01,29,15,43,9.10
2015,01,29,15,44,9.10
2015,01,29,15,45,9.10
2015,01,29,15,46,9.10
2015,01,29,15,47,9.10
2015,01,29,15,48,9.10
2015,01,29,15,49,9.10
2015,01,29,15,50,9.10
2015,01,29,15,51,9.10
2015,01,29,15,52,9.10
2015,01,29,15,53,9.10
2015,01,29,15,54,9.10
2015,01,29,15,55,9.10
2015,01,29,15,56,9.10
2015,01,29,15,57,9.10
2015,01,29,15,58,9.10
2015,01,29,15,59,9.10
2015,01,29,16,00,9.10
2015,01,29,16,01,9.10
2015,01,29,16,02,9.00
2015,01,29,16,03,9.00
2015,01,29,16,04,9.00
2015,01,29,16,05,9.00
2015,01,29,16,06,9.00
2015,01,29,16,07,9.00
2015,01,29,16,08,9.00
2015,01,29,16,09,9.00
2015,01,29,16,10,9.00
2015,01,29,16,11,8.90
2015,01,29,16,12,8.90
2015,01,29,16,13,8.90
2015,01,29,16,14,8.90
2015,01,29,16,15,8.90
2015,01,29,16,16,8.90
2015,01,29,16,17,8.90
2015,01,29,16,18,8.90
2015,01,29,16,19,8.90
2015,01,29,16,20,8.90
2015,01,29,16,21,8.90
2015,01,29,16,22,8.90
2015,01,29,16,23,8.90
2015,01,29,16,24,8.90
2015,01,29,16,25,8.80
2015,01,29,16,26,8.80
2015,01,29,16,27,8.80
2015,01,29,16,28,8.80
2015,01,29,16,29,8.80
2015,01,29,16,30,8.80
2015,01,29,16,31,8.80
2015,01,29,16,32,8.80
2015,01,29,16,33,8.80
2015,01,29,16,34,8.80
2015,01,29,16,35,8.70
2015,01,29,16,36,8.70
2015,01,29,16,37,8.70
2015,01,29,16,38,8.70
2015,01,29,16,39,8.60
2015,01,29,16,40,8.60
2015,01,29,16,41,8.60
2015,01,29,16,42,8.60
2015,01,29,16,43,8.60
2015,01,29,16,44,8.60
2015,01,29,16,45,8.50
2015,01,29,16,46,8.50
2015,01,29,16,47,8.50
2015,01,29,16,48,8.50
2015,01,29,16,49,8.50
2015,01,29,16,50,8.40
2015,01,29,16,51,8.40
2015,01,29,16,52,8.40
2015,01,29,16,53,8.40
2015,01,29,16,54,8.40
2015,01,29,16,55,8.40
2015,01,29,16,56,8.30
2015,01,29,16,57,8.30
2015,01,29,16,58,8.30
2015,01,29,16,59,8.30
2015,01,29,17,00,8.30
2015,01,29,17,01,8.30
2015,01,29,17,02,8.20
2015,01,29,17,03,8.20
2015,01,29,17,04,8.20
2015,01,29,17,05,8.20
2015,01,29,17,06,8.20
2015,01,29,17,07,8.10
2015,01,29,17,08,8.10
2015,01,29,17,09,8.10
2015,01,29,17,10,8.10
2015,01,29,17,11,8.10
2015,01,29,17,12,8.00
2015,01,29,17,13,8.00
2015,01,29,17,14,8.00
2015,01,29,17,15,7.90
2015,01,29,17,16,7.90
2015,01,29,17,17,7.90
2015,01,29,17,18,7.90
2015,01,29,17,19,7.90
2015,01,29,17,20,7.90
2015,01,29,17,21,7.80
2015,01,29,17,22,7.80
2015,01,29,17,23,7.80
2015,01,29,17,24,7.80
2015,01,29,17,25,7.80
2015,01,29,17,26,7.80
2015,01,29,17,27,7.80
2015,01,29,17,28,7.70
2015,01,29,17,29,7.70
2015,01,29,17,30,7.70
2015,01,29,17,31,7.70
2015,01,29,17,32,7.70
2015,01,29,17,33,7.70
2015,01,29,17,34,7.60
2015,01,29,17,35,7.60
2015,01,29,17,36,7.60
2015,01,29,17,37,7.60
2015,01,29,17,38,7.60
2015,01,29,17,39,7.50
2015,01,29,17,40,7.50
2015,01,29,17,41,7.50
2015,01,29,17,42,7.50
2015,01,29,17,43,7.40
2015,01,29,17,44,7.40
2015,01,29,17,45,7.40
2015,01,29,17,46,7.40
2015,01,29,17,47,7.40
2015,01,29,17,48,7.30
2015,01,29,17,49,7.30
2015,01,29,17,50,7.30
2015,01,29,17,51,7.30
2015,01,29,17,52,7.30
2015,01,29,17,53,7.30
2015,01,29,17,54,7.30
2015,01,29,17,55,7.30
2015,01,29,17,56,7.30
2015,01,29,17,57,7.20
2015,01,29,17,58,7.20
2015,01,29,17,59,7.20
2015,01,29,18,00,7.20
2015,01,29,18,01,7.20
2015,01,29,18,02,7.20
2015,01,29,18,03,7.20
2015,01,29,18,04,7.20
2015,01,29,18,05,7.20
2015,01,29,18,06,7.20
2015,01,29,18,07,7.20
2015,01,29,18,08,7.10
2015,01,29,18,09,7.10
2015,01,29,18,10,7.10
2015,01,29,18,11,7.10
2015,01,29,18,12,7.10
2015,01,29,18,13,7.10
2015,01,29,18,14,7.10
2015,01,29,18,15,7.10
2015,01,29,18,16,7.10
2015,01,29,18,17,7.00
2015,01,29,18,18,7.00
2015,01,29,18,19,7.00
2015,01,29,18,20,7.00
2015,01,29,18,21,7.00
2015,01,29,18,22,7.00
2015,01,29,18,23,7.00
2015,01,29,18,24,7.00
2015,01,29,18,25,7.00
2015,01,29,18,26,7.00
2015,01,29,18,27,7.00
2015,01,29,18,28,6.90
2015,01,29,18,29,6.90
2015,01,29,18,30,6.90
2015,01,29,18,31,6.90
2015,01,29,18,32,6.90
2015,01,29,18,33,6.90
2015,01,29,18,34,6.90
2015,01,29,18,35,6.90
2015,01,29,18,36,6.90
2015,01,29,18,37,6.90
2015,01,29,18,38,6.90
2015,01,29,18,39,6.90
2015,01,29,18,40,6.90
2015,01,29,18,41,6.90
2015,01,29,18,42,6.80
2015,01,29,18,43,6.80
2015,01,29,18,44,6.80
2015,01,29,18,45,6.80
2015,01,29,18,46,6.80
2015,01,29,18,47,6.80
2015,01,29,18,48,6.80
2015,01,29,18,49,6.80
2015,01,29,18,50,6.80
2015,01,29,18,51,6.80
2015,01,29,18,52,6.80
2015,01,29,18,53,6.80
2015,01,29,18,54,6.80
2015,01,29,18,55,6.70
2015,01,29,18,56,6.70
2015,01,29,18,57,6.70
2015,01,29,18,58,6.70
2015,01,29,18,59,6.70
2015,01,29,19,00,6.70
2015,01,29,19,01,6.70
2015,01,29,19,02,6.70
2015,01,29,19,03,6.70
2015,01,29,19,04,6.70
2015,01,29,19,05,6.70
2015,01,29,19,06,6.70
2015,01,29,19,07,6.70
2015,01,29,19,08,6.70
2015,01,29,19,09,6.70
2015,01,29,19,10,6.70
2015,01,29,19,11,6.70
2015,01,29,19,12,6.70
2015,01,29,19,13,6.60
2015,01,29,19,14,6.60
2015,01,29,19,15,6.60
2015,01,29,19,16,6.60
2015,01,29,19,17,6.60
2015,01,29,19,18,6.60
2015,01,29,19,19,6.50
2015,01,29,19,20,6.50
2015,01,29,19,21,6.50
2015,01,29,19,22,6.40
2015,01,29,19,23,6.40
2015,01,29,19,24,6.40
2015,01,29,19,25,6.40
2015,01,29,19,26,6.30
2015,01,29,19,27,6.30
2015,01,29,19,28,6.30
2015,01,29,19,29,6.30
2015,01,29,19,30,6.30
2015,01,29,19,31,6.30
2015,01,29,19,32,6.30
2015,01,29,19,33,6.30
2015,01,29,19,34,6.30
2015,01,29,19,35,6.30
2015,01,29,19,36,6.20
2015,01,29,19,37,6.20
2015,01,29,19,38,6.20
2015,01,29,19,39,6.20
2015,01,29,19,40,6.20
2015,01,29,19,41,6.20
2015,01,29,19,42,6.10
2015,01,29,19,43,6.10
2015,01,29,19,44,6.20
2015,01,29,19,45,6.10
2015,01,29,19,46,6.10
2015,01,29,19,47,6.10
2015,01,29,19,48,6.20
2015,01,29,19,49,6.20
2015,01,29,19,50,6.20
2015,01,29,19,51,6.20
2015,01,29,19,52,6.20
2015,01,29,19,53,6.20
2015,01,29,19,54,6.20
2015,01,29,19,55,6.20
2015,01,29,19,56,6.20
2015,01,29,19,57,6.20
2015,01,29,19,58,6.20
2015,01,29,19,59,6.20
2015,01,29,20,00,6.20
2015,01,29,20,01,6.20
2015,01,29,20,02,6.20
2015,01,29,20,03,6.20
2015,01,29,20,04,6.20
2015,01,29,20,05,6.20
2015,01,29,20,06,6.20
2015,01,29,20,07,6.20
2015,01,29,20,08,6.20
2015,01,29,20,09,6.20
2015,01,29,20,10,6.20
2015,01,29,20,11,6.20
2015,01,29,20,12,6.20
2015,01,29,20,13,6.20
2015,01,29,20,14,6.20
2015,01,29,20,15,6.20
2015,01,29,20,16,6.20
2015,01,29,20,17,6.20
2015,01,29,20,18,6.20
2015,01,29,20,19,6.20
2015,01,29,20,20,6.20
2015,01,29,20,21,6.10
2015,01,29,20,22,6.10
2015,01,29,20,23,6.10
2015,01,29,20,24,6.10
2015,01,29,20,25,6.10
2015,01,29,20,26,6.10
2015,01,29,20,27,6.10
2015,01,29,20,28,6.10
2015,01,29,20,29,6.10
2015,01,29,20,30,6.10
2015,01,29,20,31,6.10
2015,01,29,20,32,6.10
2015,01,29,20,33,6.10
2015,01,29,20,34,6.10
2015,01,29,20,35,6.10
2015,01,29,20,36,6.10
2015,01,29,20,37,6.10
2015,01,29,20,38,6.00
2015,01,29,20,39,6.00
2015,01,29,20,40,6.00
2015,01,29,20,41,6.00
2015,01,29,20,42,6.00
2015,01,29,20,43,6.00
2015,01,29,20,44,5.90
2015,01,29,20,45,5.90
2015,01,29,20,46,5.90
2015,01,29,20,47,5.90
2015,01,29,20,48,5.90
2015,01,29,20,49,5.80
2015,01,29,20,50,5.80
2015,01,29,20,51,5.80
2015,01,29,20,52,5.80
2015,01,29,20,53,5.70
2015,01,29,20,54,5.70
2015,01,29,20,55,5.70
2015,01,29,20,56,5.70
2015,01,29,20,57,5.70
2015,01,29,20,58,5.70
2015,01,29,20,59,5.70
2015,01,29,21,00,5.70
2015,01,29,21,01,5.70
2015,01,29,21,02,5.70
2015,01,29,21,03,5.60
2015,01,29,21,04,5.70
2015,01,29,21,05,5.70
2015,01,29,21,06,5.70
2015,01,29,21,07,5.70
2015,01,29,21,08,5.60
2015,01,29,21,09,5.60
2015,01,29,21,10,5.60
2015,01,29,21,11,5.60
2015,01,29,21,12,5.60
2015,01,29,21,13,5.60
2015,01,29,21,14,5.60
2015,01,29,21,15,5.60
2015,01,29,21,16,5.60
2015,01,29,21,17,5.60
2015,01,29,21,18,5.60
2015,01,29,21,19,5.60
2015,01,29,21,20,5.60
2015,01,29,21,21,5.60
2015,01,29,21,22,5.60
2015,01,29,21,23,5.60
2015,01,29,21,24,5.60
2015,01,29,21,25,5.60
2015,01,29,21,26,5.60
2015,01,29,21,27,5.60
2015,01,29,21,28,5.60
2015,01,29,21,29,5.60
2015,01,29,21,30,5.60
2015,01,29,21,31,5.60
2015,01,29,21,32,5.60
2015,01,29,21,33,5.60
2015,01,29,21,34,5.60
2015,01,29,21,35,5.60
2015,01,29,21,36,5.60
2015,01,29,21,37,5.60
2015,01,29,21,38,5.60
2015,01,29,21,39,5.50
2015,01,29,21,40,5.60
2015,01,29,21,41,5.50
2015,01,29,21,42,5.60
2015,01,29,21,43,5.60
2015,01,29,21,44,5.60
2015,01,29,21,45,5.60
2015,01,29,21,46,5.60
2015,01,29,21,47,5.60
2015,01,29,21,48,5.60
2015,01,29,21,49,5.60
2015,01,29,21,50,5.60
2015,01,29,21,51,5.60
2015,01,29,21,52,5.60
2015,01,29,21,53,5.60
2015,01,29,21,54,5.60
2015,01,29,21,55,5.60
2015,01,29,21,56,5.60
2015,01,29,21,57,5.60
2015,01,29,21,58,5.60
2015,01,29,21,59,5.60
2015,01,29,22,00,5.60
2015,01,29,22,01,5.50
2015,01,29,22,02,5.50
2015,01,29,22,03,5.50
2015,01,29,22,04,5.50
2015,01,29,22,05,5.40
2015,01,29,22,06,5.40
2015,01,29,22,07,5.40
2015,01,29,22,08,5.40
2015,01,29,22,09,5.40
2015,01,29,22,10,5.40
2015,01,29,22,11,5.40
2015,01,29,22,12,5.40
2015,01,29,22,13,5.40
2015,01,29,22,14,5.40
2015,01,29,22,15,5.40
2015,01,29,22,16,5.40
2015,01,29,22,17,5.40
2015,01,29,22,18,5.40
2015,01,29,22,19,5.40
2015,01,29,22,20,5.30
2015,01,29,22,21,5.30
2015,01,29,22,22,5.30
2015,01,29,22,23,5.30
2015,01,29,22,24,5.30
2015,01,29,22,25,5.30
2015,01,29,22,26,5.30
2015,01,29,22,27,5.30
2015,01,29,22,28,5.20
2015,01,29,22,29,5.20
2015,01,29,22,30,5.20
2015,01,29,22,31,5.20
2015,01,29,22,32,5.10
2015,01,29,22,33,5.10
2015,01,29,22,34,5.10
2015,01,29,22,35,5.10
2015,01,29,22,36,5.00
2015,01,29,22,37,5.00
2015,01,29,22,38,5.00
2015,01,29,22,39,5.00
2015,01,29,22,40,4.90
2015,01,29,22,41,4.90
2015,01,29,22,42,4.90
2015,01,29,22,43,4.90
2015,01,29,22,44,4.90
2015,01,29,22,45,4.90
2015,01,29,22,46,4.90
2015,01,29,22,47,4.90
2015,01,29,22,48,4.90
2015,01,29,22,49,4.80
2015,01,29,22,50,4.80
2015,01,29,22,51,4.80
2015,01,29,22,52,4.80
2015,01,29,22,53,4.80
2015,01,29,22,54,4.70
2015,01,29,22,55,4.70
2015,01,29,22,56,4.70
2015,01,29,22,57,4.70
2015,01,29,22,58,4.70
2015,01,29,22,59,4.80
2015,01,29,23,00,4.70
2015,01,29,23,01,4.70
2015,01,29,23,02,4.70
2015,01,29,23,03,4.70
2015,01,29,23,04,4.70
2015,01,29,23,05,4.70
2015,01,29,23,06,4.70
2015,01,29,23,07,4.60
2015,01,29,23,08,4.70
2015,01,29,23,09,4.70
2015,01,29,23,10,4.70
2015,01,29,23,11,4.70
2015,01,29,23,12,4.70
2015,01,29,23,13,4.70
2015,01,29,23,14,4.70
2015,01,29,23,15,4.70
2015,01,29,23,16,4.70
2015,01,29,23,17,4.70
2015,01,29,23,18,4.70
2015,01,29,23,19,4.70
2015,01,29,23,20,4.70
2015,01,29,23,21,4.80
2015,01,29,23,22,4.80
2015,01,29,23,23,4.80
2015,01,29,23,24,4.80
2015,01,29,23,25,4.80
2015,01,29,23,26,4.80
2015,01,29,23,27,4.80
2015,01,29,23,28,4.70
2015,01,29,23,29,4.70
2015,01,29,23,30,4.70
2015,01,29,23,31,4.70
2015,01,29,23,32,4.70
2015,01,29,23,33,4.70
2015,01,29,23,34,4.70
2015,01,29,23,35,4.70
2015,01,29,23,36,4.70
2015,01,29,23,37,4.60
2015,01,29,23,38,4.60
2015,01,29,23,39,4.60
2015,01,29,23,40,4.60
2015,01,29,23,41,4.60
2015,01,29,23,42,4.60
2015,01,29,23,43,4.60
2015,01,29,23,44,4.60
2015,01,29,23,45,4.60
2015,01,29,23,46,4.60
2015,01,29,23,47,4.60
2015,01,29,23,48,4.50
2015,01,29,23,49,4.50
2015,01,29,23,50,4.50
2015,01,29,23,51,4.50
2015,01,29,23,52,4.50
2015,01,29,23,53,4.50
2015,01,29,23,54,4.50
2015,01,29,23,55,4.50
2015,01,29,23,56,4.50
2015,01,29,23,57,4.60
2015,01,29,23,58,4.60
2015,01,29,23,59,4.60
